Regional Weather Roundup
Issued by NWS Midland/Odessa, TX

Skip options and go directly to product.
Home | Oldest Version | Previous Version | Current Version | All | Text Only | Save Text | Print | Product List | Glossary On

Skip product version selection by date and time.   
683
ASUS44 KMAF 090510
RWRMAF
MIDLAND AREA WEATHER ROUNDUP
NATIONAL WEATHER SERVICE MIDLAND TX
1100 PM CST THU DEC 08 2016

...IN SOUTHWEST TEXAS AND SOUTHEAST NEW MEXICO...

CITY           SKY/WX    TMP DP  RH WIND       PRES   REMARKS
ALPINE         CLOUDY    26  25  96 CALM      30.54F
ANDREWS        CLOUDY    26  22  85 S5        30.58S WCI  20
ARTESIA        CLOUDY    28  25  86 S12       30.53S WCI  18
BIG SPRING     CLOUDY    28  22  79 CALM      30.64R
CARLSBAD       CLOUDY    29  24  82 S14       30.54R WCI  18
DRYDEN           N/A     34  26  72 NE6       30.57F WCI  29
FORT STOCKTON  CLOUDY    28  25  88 E7        30.57S WCI  21
GUAD PASS      FRZ RAIN  20  20 100 NE23      30.43S VSB 1/2 WCI   3
HOBBS          CLOUDY    27  23  86 SE8       30.56R WCI  18
MARFA          CLOUDY    26  24  92 NE6       30.48S WCI  19
MIDLAND AIRPK  CLOUDY    28  22  77 CALM      30.61R
MIDLAND INTL   CLOUDY    28  21  75 SE6       30.59R WCI  22
ODESSA         CLOUDY    28  20  71 SE6       30.59R WCI  22
PECOS          CLOUDY    30  26  87 E9        30.60S WCI  21
PRESIDIO       CLOUDY    37  28  72 NE12      30.52R WCI  29
SEMINOLE       CLOUDY    24  21  87 CALM      30.58R
SNYDER         CLOUDY    25  19  79 E3        30.63R
WINK           LGT SNOW  28  23  81 SE7       30.58S WCI  21
$$
...OTHER STATIONS IN TEXAS...

CITY           SKY/WX    TMP DP  RH WIND       PRES   REMARKS
ABILENE        CLOUDY    27  18  69 CALM      30.66R
AMARILLO       CLOUDY    24   9  52 S12       30.51F WCI  13
AUSTIN         CLOUDY    37  20  50 N16       30.63S WCI  28
BROWNSVILLE    CLOUDY    43  40  89 NW23G33   30.48S WCI  34
CORPUS CHRISTI CLOUDY    42  32  67 N20       30.57R WCI  33
DALLAS FTW     PTCLDY    30  15  53 N9        30.67R WCI  22
DEL RIO        CLOUDY    39  26  59 N7        30.62F WCI  34
EL PASO        CLEAR     31  24  75 N3        30.43S
HOUSTON INT    MOCLDY    41  31  67 N17       30.57S WCI  32
LUBBOCK        CLOUDY    27  15  61 S9        30.56R WCI  18
SAN ANGELO     CLOUDY    30  23  75 NE6       30.64S WCI  24
SAN ANTONIO    CLOUDY    38  23  55 N17G23    30.60S WCI  28
WACO           CLOUDY    32  21  64 NW8       30.67S WCI  25
WICHITA FALLS  NOT AVBL
$$
...OTHER LOCATIONS IN NEW MEXICO...

CITY           SKY/WX    TMP DP  RH WIND       PRES   REMARKS
ALAMAGORDO     NOT AVBL
ALBUQUERQUE    CLOUDY    27  16  63 SE7       30.36S WCI  19
CANNON AFB     CLOUDY    27  22  81 S10       30.46F WCI  17
CLOVIS         CLOUDY    25  14  63 SE10      30.47S WCI  15
HOLLOMAN AFB   CLOUDY    30  22  73 S7        30.50R WCI  23
ROSWELL        CLOUDY    29  22  75 S9        30.51R WCI  20
RUIDOSO        CLOUDY    19  18  93 NW6       30.38S WCI  11
SANTA FE       CLOUDY    19  12  74 CALM      30.33R
TRUTH OR CONSE CLEAR     34  24  67 S5        30.39R WCI  30
TUCUMCARI      CLOUDY    27  17  66 S5        30.43S WCI  22
$$

  • National Weather Service
  • Southern Region Headquarters
  • 819 Taylor Street, Room 10A06
  • Fort Worth, TX 76102
  • Page Author: NWS Fort Worth
  • Web Master: SR-SRH.Webmaster@noaa.gov
  •  
  • Page last modified: 30-Sep-2016 6:36 PM UTC
USA.gov is the U.S. government's official web portal to all federal, state and local government web resources and services.